Patuxent River, MD

12:25 AM EDT on May 26, 2017 (GMT -0400)
Patuxent River Naval Air Station

Weather History for KNHK - March, 2014

Change the Weather History Date:

Wednesday, March 12, 2014

  Actual Average Record
Temperature  
Mean Temperature 54 °F -  
Max Temperature 68 °F 53 °F 79 °F (2006)
Min Temperature 36 °F 36 °F 21 °F (1998)
Degree Days  
Heating Degree Days 12    
Growing Degree Days 4 (Base 50)    
Moisture  
Dew Point 43 °F    
Average Humidity 67    
Maximum Humidity 89    
Minimum Humidity 49    
Precipitation  
Precipitation 0.11 in - - ()
Sea Level Pressure  
Sea Level Pressure 29.34 in    
Wind  
Wind Speed 7 mph (SW)    
Max Wind Speed 30 mph    
Max Gust Speed 45 mph    
Visibility 10 miles    
Events Rain    
Averages and records for this station are not official NWS values.
T = Trace of Precipitation, MM = Missing Value Source: NWS Daily Summary

Daily Weather History Graph

Daily Weather History Graph

Search for Another Location

Airport or City:

Trip Planner

Search our weather history database for the weather conditions in past years. The results will help you decide how hot, cold, wet, or windy it might be!

Date:

Astronomy

Mar. 12, 2014 Rise Set
Actual Time 7:21 AM EDT 7:09 PM EDT
Civil Twilight 6:55 AM EDT 7:36 PM EDT
Nautical Twilight 6:24 AM EDT 8:06 PM EDT
Astronomical Twilight 5:53 AM EDT 8:37 PM EDT
Moon 3:40 PM EDT (3/12) 4:49 AM EDT (3/12)
Length of Visible Light 12h 41m
Length of Day
11h 48m
Waxing Gibbous, 85% of the Moon is Illuminated
Mar 12
Waxing Gibbous
Mar 16
Full
Mar 23
Last Quarter
Mar 30
New
Apr 7
First Quarter

Hourly Weather History & Observations

Time (EDT) Temp. Windchill Dew Point Humidity Pressure Visibility Wind Dir Wind Speed Gust Speed Precip Events Conditions
12:52 AM 42.1 °F - 34.0 °F 73% 29.65 in 10.0 mi Calm Calm - N/A   Clear
1:52 AM 39.0 °F - 34.0 °F 82% 29.62 in 10.0 mi Calm Calm - N/A   Clear
2:52 AM 39.0 °F - 34.0 °F 82% 29.59 in 10.0 mi Calm Calm - N/A   Clear
3:52 AM 39.0 °F - 36.0 °F 89% 29.55 in 10.0 mi Calm Calm - N/A   Clear
4:52 AM 39.9 °F - 36.0 °F 86% 29.52 in 10.0 mi Calm Calm - N/A   Clear
5:04 AM 39.0 °F - 36.0 °F 89% 29.51 in 10.0 mi Calm Calm - N/A   Mostly Cloudy
5:52 AM 41.0 °F - 37.0 °F 86% 29.52 in 10.0 mi Calm Calm - N/A   Overcast
6:52 AM 43.0 °F - 37.0 °F 80% 29.51 in 10.0 mi Calm Calm - N/A   Overcast
7:52 AM 55.0 °F - 39.9 °F 57% 29.49 in 10.0 mi South 4.6 mph - N/A   Overcast
8:52 AM 57.0 °F - 39.9 °F 53% 29.46 in 10.0 mi South 5.8 mph - N/A   Overcast
9:52 AM 57.9 °F - 41.0 °F 53% 29.44 in 10.0 mi SSW 10.4 mph - N/A   Overcast
10:52 AM 59.0 °F - 42.1 °F 53% 29.40 in 10.0 mi SSW 9.2 mph 18.4 mph 0.00 in Rain Light Rain
11:45 AM 61.0 °F - 43.0 °F 52% 29.38 in 10.0 mi South 15.0 mph 24.2 mph 0.00 in   Overcast
11:52 AM 61.0 °F - 43.0 °F 52% 29.37 in 10.0 mi SSW 11.5 mph 24.2 mph 0.00 in   Overcast
12:52 PM 66.9 °F - 46.9 °F 49% 29.32 in 10.0 mi SSW 10.4 mph - N/A   Overcast
1:47 PM 68.0 °F - 48.2 °F 49% 29.27 in 10.0 mi SW 11.5 mph 20.7 mph 0.00 in Rain Light Rain
1:52 PM 66.9 °F - 48.9 °F 52% 29.27 in 9.0 mi SSW 10.4 mph 20.7 mph 0.00 in Rain Light Rain
2:52 PM 61.0 °F - 53.1 °F 75% 29.23 in 9.0 mi SSW 11.5 mph 25.3 mph 0.03 in Rain Light Rain
3:41 PM 62.1 °F - 54.0 °F 75% 29.17 in 10.0 mi South 11.5 mph 17.3 mph 0.01 in   Overcast
3:52 PM 62.1 °F - 54.0 °F 75% 29.16 in 10.0 mi South 11.5 mph 18.4 mph 0.01 in   Overcast
4:52 PM 64.0 °F - 54.0 °F 70% 29.12 in 10.0 mi SSW 9.2 mph 19.6 mph N/A   Mostly Cloudy
5:52 PM 64.9 °F - 53.1 °F 65% 29.11 in 10.0 mi SSW 6.9 mph - N/A   Mostly Cloudy
6:52 PM 66.0 °F - 54.0 °F 65% 29.10 in 10.0 mi SSW 12.7 mph 20.7 mph N/A   Mostly Cloudy
7:27 PM 64.9 °F - 54.0 °F 68% 29.10 in 10.0 mi SW 16.1 mph 26.5 mph 0.00 in Rain Light Rain
7:52 PM 63.0 °F - 55.0 °F 75% 29.13 in 10.0 mi WSW 15.0 mph 25.3 mph 0.00 in   Mostly Cloudy
7:57 PM 63.0 °F - 55.0 °F 75% 29.13 in 7.0 mi West 18.4 mph - 0.05 in Rain Light Rain
8:08 PM 61.0 °F - 55.0 °F 81% 29.13 in 10.0 mi WSW 13.8 mph 24.2 mph 0.06 in   Mostly Cloudy
8:52 PM 61.0 °F - 52.0 °F 72% 29.17 in 10.0 mi West 27.6 mph 40.3 mph 0.07 in   Mostly Cloudy
9:52 PM 50.0 °F - 32.0 °F 50% 29.30 in 10.0 mi NW 21.9 mph 43.7 mph N/A   Mostly Cloudy
10:52 PM 39.9 °F 28.4 °F 24.1 °F 53% 29.39 in 10.0 mi NW 29.9 mph 44.9 mph N/A   Mostly Cloudy
11:52 PM 36.0 °F 23.5 °F 19.9 °F 52% 29.44 in 10.0 mi WNW 27.6 mph 40.3 mph N/A   Mostly Cloudy